Powrót do katalogu

STARLINK-2453

AktywnyŁącznośćVLEO
NORAD 47845·PAYLOAD·🇺🇸 United States

Wystrzelony Mar 11, 2021 z Cape Canaveral Space Force Station

Loading…

Następne Przeloty (najbliższe 24 godziny)

TLE

ŚwieżeSource: CelesTrak SupGP

Epoka: Sep 14, 2026, 19:53 UTC

1 47845C 21018BL  26257.82895833 -.00017326  00000+0 -55730-3 0  2578
2 47845  53.1578  98.4143 0001354  89.1307 320.7712 15.31702754    17

Śledź STARLINK-2453 w czasie rzeczywistym z AllMySat

Download on the App Store